Weather in Oaxaca de Juárez

Mexico     17°04′32″N   96°43′37″W
temp.,
°C
wind,
m/s
gust,
m/s
humid.,
%
clouds,
%
prec.,
mm/h
press.,
hPa
HPBL,
m
25 july, sun
sun2501:00+14nnw228886 0.0 102028
04:00+13nnw2286100 0.0 101928
07:00+13nnw2283100 0.0 101928
10:00+19nnw226296 0.0 1018437
13:00+24s124585 0.0 10161378
16:00+25se334368 0.1 10121900
19:00+22se455883 0.2 1012163
22:00+17e1175100 0.1 101616
26 july, mon
mon2601:00+15n2284100 0.1 101817
04:00+14nnw228496 0.0 101733
07:00+13nnw2282100 0.0 101841
10:00+19n115741 0.0 1017456
13:00+24se12425 0.0 10151249
16:00+25se224033 0.0 10121543
19:00+20ne3566100 0.1 1013116
22:00+18ene117499 0.6 101622
27 july, tue
tue2701:00+16nne1182100 0.6 101711
04:00+14nnw22885 0.0 101615
07:00+13nnw228623 0.0 101826
10:00+19n1160100 0.0 1018489
13:00+23se224165 0.0 10161320
16:00+25ese334296 0.0 10121528
19:00+22ese226598 0.3 101362
22:00+16ne118679 3.0 101614
28 july, wed
wed2801:00+15n228715 3.3 101822
04:00+14nnw229178 0.0 101738
07:00+13nnw338930 0.0 101843
10:00+18nnw22659 0.0 1018526
13:00+24s234758 0.0 10151677
16:00+24sse3348100 0.0 1012987
19:00+21ene126293 0.0 101230
22:00+16n227548 0.0 101626
29 july, thu
thu2901:00+14nnw2287100 0.0 101837
04:00+13nnw2291100 0.0 101740
07:00+13nnw3389100 0.0 101857
10:00+17nw2271100 0.0 1018522
13:00+22s2358100 0.3 10151177
16:00+22ne0257100 0.7 1013883
19:00+19e2273100 1.4 101463
22:00+16nne2282100 0.3 101731